743  
ASUS43 KDTX 281910  
RWRMI  
MICHIGAN HOURLY REGIONAL WEATHER ROUNDUP  
NATIONAL WEATHER SERVICE DETROIT/PONTIAC MI  
200 PM EST TUE JAN 28 2020  
 
NOTE: "FAIR" INDICATES FEW OR NO CLOUDS BELOW 12,000 FEET WITH NO  
SIGNIFICANT WEATHER AND/OR TO VISIBILITY
.  
 
MIZ047>049-052>055-059>063-066>070-074>076-081>083-282000-  
SOUTHEAST LOWER MICHIGAN  
 
CITY SKY/WX TMP DP RH WIND PRES REMARKS
 
ADRIAN CLOUDY 33 26 75 W7 30.02F WCI 27  
ALMA CLOUDY 32 23 69 N6 30.03S WCI 27  
ANN ARBOR CLOUDY 34 23 64 NW7 30.00F WCI 28  
BAD AXE CLOUDY 28 22 78 NW10 30.01S WCI 19  
CARO CLOUDY 31 24 75 NW6 30.02F WCI 25  
DETROIT CITY CLOUDY 35 26 69 W6 30.01F WCI 30  
DETROIT CLOUDY 35 25 66 NW12 30.01F WCI 27  
FLINT CLOUDY 34 23 64 N9 30.02S WCI 27  
GROSSE ILE CLOUDY 35 26 69 W7 30.00F WCI 29  
HILLSDALE CLOUDY 32 26 80 W10 30.00S WCI 23  
HOWELL CLOUDY 33 24 72 NW6 30.00S WCI 27  
 
CITY SKY/WX TMP DP RH WIND PRES REMARKS
 
JACKSON CLOUDY 33 26 75 W6 30.01F WCI 28  
LAMBERTVILLE CLOUDY 35 25 65 NW7 30.02F WCI 29  
LANSING CLOUDY 32 24 72 NW7 30.02F WCI 26  
LAPEER CLOUDY 31 21 66 NW9 30.01F WCI 23  
MASON CLOUDY 32 28 83 NW7 30.01F WCI 26  
MONROE CLOUDY 34 27 75 W7 30.01F WCI 28  
MT. CLEMENS CLOUDY 33 31 89 NW6 29.99S WCI 28  
PONTIAC CLOUDY 32 23 69 NW9 29.99S WCI 24  
PORT HOPE N/A 28 21 75 NW7 30.01R WCI 21  
PORT HURON CLOUDY 32 25 74 NW9 30.01R WCI 24  
TRI CITIES CLOUDY 30 21 69 NW12 30.04S WCI 20  
MIDLAND CLOUDY 30 23 73 NW6 30.03F WCI 24  
TROY CLOUDY 34 26 74 W8 30.02S WCI 27  
SAGINAW HB CLOUDY 30 23 74 NW9 30.03F WCI 22  

 
MIZ043>046-050>051-056>058-064>065-071>073-077>080-282000-  
SOUTHWEST LOWER MICHIGAN  
 
CITY SKY/WX TMP DP RH WIND PRES REMARKS
 
BATTLE CREEK CLOUDY 33 28 81 NW7 30.02F WCI 27  
BENTON HARBOR CLOUDY 33 29 85 NW6 30.04F WCI 28  
BIG RAPIDS CLOUDY 33 25 73 CALM 30.00F  
COLDWATER CLOUDY 32 32 99 W5 30.01F FOG WCI 27  
FREMONT LGT SNOW 32 32 100 NW10 30.03S WCI 23  
HOLLAND CLOUDY 33 28 81 NW10 30.04F WCI 25  
GRAND RAPIDS CLOUDY 33 26 75 NW9 30.03F WCI 25  
IONIA CLOUDY 32 27 79 W5 30.02S WCI 28  
KALAMAZOO LGT SNOW 33 28 81 NW8 30.03F WCI 26  
LUDINGTON CLOUDY 30 28 91 N10G17 30.04F WCI 21  
MARSHALL CLOUDY 33 25 71 W6 30.01F WCI 28  
MOUNT PLEASANT CLOUDY 32 23 70 N6 30.02S WCI 26  
MUSKEGON CLOUDY 33 24 69 W5 30.04F WCI 29  
SOUTH HAVEN CLOUDY 32 28 83 NW8 30.04F WCI 25  

 
MIZ016>042-282000-  
NORTHERN LOWER MICHIGAN  
 
CITY SKY/WX TMP DP RH WIND PRES REMARKS
 
ALPENA CLOUDY 29 21 72 N10 30.01S WCI 20  
BEAVER ISLAND CLOUDY 28 20 70 N3 30.04S  
BELLAIRE CLOUDY 30 25 83 N3 30.04S  
CADILLAC CLOUDY 28 20 74 NW7 29.98F WCI 20  
CHARLEVOIX CLOUDY 30 20 66 NW8 30.04R WCI 22  
FRANKFORT CLOUDY 29 23 79 NW6 30.05F WCI 23  
GAYLORD CLOUDY 26 21 81 W7 29.98S WCI 18  
GRAYLING N/A 26 25 93 W6 29.99S WCI 20  
HARBOR SPRINGS CLOUDY 30 21 69 W5 30.02F WCI 25  
HOUGHTON LAKE CLOUDY 27 22 81 NW8 30.00F WCI 19  
MANISTEE MIX PCPN 30 27 88 NW14 30.04F FOG WCI 19  
OSCODA CLOUDY 30 22 72 W5 30.01F WCI 25  
PELLSTON CLOUDY 28 23 81 N8 30.03S WCI 20  
ROGERS CITY CLOUDY 28 22 77 NW9 30.03S WCI 19  
TRAVERSE CITY CLOUDY 30 22 72 NW8 30.03F WCI 22  

 
MIZ007>008-015-282000-  
EASTERN UPPER MICHIGAN  
 
CITY SKY/WX TMP DP RH WIND PRES REMARKS
 
KINROSS CLOUDY 26 21 81 NW6 30.02S WCI 19  
MACKINAC ISLAN CLOUDY 28 20 72 NW3 30.02S  
NEWBERRY CLOUDY 27 25 91 NW6 30.01F FOG WCI 20  
S. S. MARIE CLOUDY 27 18 69 W8 30.01F WCI 19  
MUNISING N/A 26 20 77 N14 30.06S WCI 14  

 
MIZ004>006-011>014-085-282000-  
CENTRAL UPPER MICHIGAN  
 
CITY SKY/WX TMP DP RH WIND PRES REMARKS
 
MANISTIQUE CLOUDY 27 22 82 N8 30.04S WCI 19  
ESCANABA CLOUDY 29 18 63 N9 30.06F WCI 20  
MENOMINEE CLOUDY 27 15 61 CALM 30.08F  
SAWYER-GWINN CLOUDY 25 23 93 NE9 30.02F FOG WCI 15  

 
MIZ001>003-009>011-084-282000-  
WESTERN UPPER MICHIGAN  
 
CITY SKY/WX TMP DP RH WIND PRES REMARKS
 
IRON MOUNTAIN CLOUDY 26 14 60 NE5 30.03F WCI 20  
HOUGHTON LGT SNOW 23 19 85 N8 30.06F FOG WCI 14  
COPPER HARBOR N/A 25 21 85 NE14G20 30.09S WCI 13  
IRONWOOD FLURRIES 20 16 84 W6 30.08F WCI 12  

 
 
ABBREVIATIONS USED IN REMARKS  
TC - TEMPERATURE IN CELSIUS  
WCI - WIND CHILL INDEX  
HX - HEAT INDEX  
VSB - VISIBILITY  
 
 
 
CLICK HERE TO GO TO PREVIOUS BULLETINS.

The Nexlab MI Page Main Text Page